Погода в Беляевке

Россия / Пермский край     57°28′08″N   55°28′27″E
темп.,
°C
ветер,
м/с
пор.,
м/с
влажн.,
%
обл.,
%
осадки,
мм/ч
давл.,
гПа
погр.,
м
10 мая, пн
пн1023:00+15юв2365100 0.0 101861
02:00+14вюв11685 0.0 101815
05:00+11вюв11733 0.0 102011
08:00+16юв24584 0.0 1021211
11:00+21ю34415 0.0 1021875
14:00+24ю333134 0.0 10212713
17:00+24ююв3332100 0.0 10222437
20:00+20юв114784 0.0 102314
11 мая, вт
вт1123:00+16ююв115584 0.0 102411
02:00+14с2264100 0.0 102520
05:00+13ссв1170100 0.0 102511
08:00+16юв016386 0.0 1026118
11:00+21юз114772 0.0 1027665
14:00+24з23389 0.0 10271999
17:00+19с256297 0.0 1027166
20:00+18всв117145 0.6 102816
12 мая, ср
ср1223:00+14св2289100 0.6 102937
02:00+12св2287100 0.0 103023
05:00+12св1186100 0.0 103011
08:00+15ссв23690 0.0 1031262
11:00+19ссв23475 0.0 10301051
14:00+22ссз22335 0.0 10301550
17:00+23ссз223399 0.0 10291712
20:00+20с114995 0.0 102911
13 мая, чт
чт1323:00+15св115776 0.0 102911
02:00+14в11645 0.0 103010
05:00+12вюв006774 0.0 103010
08:00+17ююз005796 0.0 1030119
11:00+22з114498 0.0 1030632
14:00+25сз013789 0.0 10291410
17:00+26ссв01358 0.0 10271620
20:00+23ю11485 0.0 102712
14 мая, пт
пт1423:00+18юз11620 0.0 102711
02:00+16ю11675 0.0 102711
05:00+15ю11725 0.0 102811
08:00+19юз23605 0.0 1028199
11:00+24юз33443 0.0 10271091
14:00+26зюз34350 0.0 10252314
17:00+27з45336 0.0 10242617
20:00+23юз254833 0.0 1023118